| time (UTC) | temp F | wind direction | speed knots | gust knots | rain 1hr in | rain 24hr in | rain mn in | humidity % | barometer mb |
| 20260504012729 | 61 | 202 | 2.6 | 6.1 | 0.00 | 0.00 | 0.00 | 56 | 1011.3 |
| 20260504012214 | 61 | 277 | 1.7 | 7.8 | 0.00 | 0.00 | 0.00 | 56 | 1011.3 |
| 20260504011741 | 61 | 271 | 3.5 | 8.7 | 0.00 | 0.00 | 0.00 | 56 | 1011.3 |
| 20260504011227 | 61 | 275 | 3.5 | 8.7 | 0.00 | 0.00 | 0.00 | 55 | 1011.2 |
| 20260504010713 | 61 | 261 | 2.6 | 7.0 | 0.00 | 0.00 | 0.00 | 55 | 1011.4 |
| 20260504010238 | 62 | 256 | 2.6 | 7.0 | 0.00 | 0.00 | 0.00 | 55 | 1011.3 |
| 20260504005722 | 62 | 223 | 1.7 | 7.0 | 0.00 | 0.00 | 0.00 | 55 | 1011.4 |
| 20260504005227 | 62 | 207 | 3.5 | 7.0 | 0.00 | 0.00 | 0.00 | 55 | 1011.6 |
| 20260504004714 | 62 | 189 | 1.7 | 6.1 | 0.00 | 0.00 | 0.00 | 54 | 1011.7 |
| 20260504004220 | 62 | 232 | 3.5 | 6.1 | 0.00 | 0.00 | 0.00 | 54 | 1011.7 |
| 20260504003746 | 62 | 220 | 2.6 | 5.2 | 0.00 | 0.00 | 0.00 | 54 | 1011.8 |
| 20260504003229 | 62 | 237 | 2.6 | 9.6 | 0.00 | 0.00 | 0.00 | 53 | 1011.9 |
| 20260504002752 | 62 | 213 | 3.5 | 9.6 | 0.00 | 0.00 | 0.00 | 53 | 1011.8 |
| 20260504002235 | 63 | 215 | 1.7 | 7.8 | 0.00 | 0.00 | 0.00 | 53 | 1012.0 |
| 20260504001719 | 63 | 257 | 3.5 | 8.7 | 0.00 | 0.00 | 0.00 | 53 | 1012.1 |
| 20260504001245 | 63 | 297 | 4.3 | 8.7 | 0.00 | 0.00 | 0.00 | 52 | 1012.1 |
| 20260504000751 | 63 | 224 | 1.7 | 8.7 | 0.00 | 0.00 | 0.00 | 53 | 1011.9 |
| 20260504000219 | 63 | 275 | 5.2 | 8.7 | 0.00 | 0.00 | 0.00 | 52 | 1012.1 |
| 20260503235743 | 63 | 279 | 3.5 | 7.8 | 0.00 | 0.00 | 0.00 | 52 | 1012.2 |
| 20260503235228 | 63 | 286 | 1.7 | 7.0 | 0.00 | 0.00 | 0.00 | 52 | 1012.3 |
| 20260503234715 | 63 | 257 | 4.3 | 7.8 | 0.00 | 0.00 | 0.00 | 51 | 1012.2 |
| 20260503234221 | 63 | 263 | 3.5 | 7.8 | 0.00 | 0.00 | 0.00 | 52 | 1012.2 |
| 20260503233725 | 64 | 263 | 4.3 | 12.2 | 0.00 | 0.00 | 0.00 | 51 | 1012.1 |
| 20260503233229 | 64 | 269 | 5.2 | 12.2 | 0.00 | 0.00 | 0.00 | 51 | 1012.1 |
| 20260503232753 | 64 | 296 | 4.3 | 10.4 | 0.00 | 0.00 | 0.00 | 51 | 1012.0 |
| 20260503232236 | 64 | 225 | 5.2 | 10.4 | 0.00 | 0.00 | 0.00 | 51 | 1011.9 |
| 20260503231719 | 64 | 276 | 7.0 | 13.9 | 0.00 | 0.00 | 0.00 | 50 | 1012.0 |
| 20260503231242 | 64 | 211 | 9.6 | 14.8 | 0.00 | 0.00 | 0.00 | 50 | 1012.1 |
| 20260503230725 | 64 | 259 | 5.2 | 14.8 | 0.00 | 0.00 | 0.00 | 50 | 1012.0 |
| 20260503230231 | 64 | 297 | 7.8 | 13.9 | 0.00 | 0.00 | 0.00 | 49 | 1011.8 |
| 20260503225718 | 64 | 242 | 3.5 | 8.7 | 0.00 | 0.00 | 0.00 | 51 | 1011.8 |
| 20260503225223 | 64 | 243 | 4.3 | 8.7 | 0.00 | 0.00 | 0.00 | 50 | 1011.9 |
| 20260503224729 | 65 | 264 | 5.2 | 13.0 | 0.00 | 0.00 | 0.00 | 50 | 1012.0 |
| 20260503224234 | 65 | 252 | 7.0 | 16.5 | 0.00 | 0.00 | 0.00 | 49 | 1012.0 |
| 20260503223716 | 65 | 270 | 6.1 | 16.5 | 0.00 | 0.00 | 0.00 | 50 | 1012.0 |
| 20260503223240 | 65 | 276 | 7.0 | 14.8 | 0.00 | 0.00 | 0.00 | 49 | 1011.8 |
| 20260503222724 | 65 | 192 | 7.8 | 14.8 | 0.00 | 0.00 | 0.00 | 49 | 1012.0 |
| 20260503222228 | 65 | 227 | 7.0 | 17.4 | 0.00 | 0.00 | 0.00 | 49 | 1011.9 |
| 20260503221732 | 65 | 287 | 7.0 | 21.7 | 0.00 | 0.00 | 0.00 | 48 | 1012.0 |
| 20260503221216 | 65 | 255 | 9.6 | 21.7 | 0.00 | 0.00 | 0.00 | 48 | 1012.1 |
| 20260503220740 | 65 | 247 | 6.1 | 17.4 | 0.00 | 0.00 | 0.00 | 49 | 1012.2 |
| 20260503220243 | 64 | 260 | 9.6 | 17.4 | 0.00 | 0.00 | 0.00 | 49 | 1012.2 |
| 20260503215745 | 64 | 223 | 7.8 | 14.8 | 0.00 | 0.00 | 0.00 | 49 | 1012.2 |
| 20260503215248 | 64 | 283 | 9.6 | 16.5 | 0.00 | 0.00 | 0.00 | 49 | 1012.2 |
| 20260503214749 | 64 | 228 | 6.1 | 16.5 | 0.00 | 0.00 | 0.00 | 51 | 1012.4 |
| 20260503214218 | 64 | 239 | 7.8 | 17.4 | 0.00 | 0.00 | 0.00 | 49 | 1012.5 |
| 20260503213724 | 64 | 265 | 7.8 | 16.5 | 0.00 | 0.00 | 0.00 | 50 | 1012.7 |
| 20260503213246 | 65 | 257 | 5.2 | 16.5 | 0.00 | 0.00 | 0.00 | 50 | 1012.7 |
| 20260503212715 | 64 | 252 | 6.1 | 18.2 | 0.00 | 0.00 | 0.00 | 50 | 1012.8 |
| 20260503212220 | 64 | 288 | 7.8 | 18.2 | 0.00 | 0.00 | 0.00 | 49 | 1013.0 |
| 20260503211726 | 64 | 290 | 7.8 | 17.4 | 0.00 | 0.00 | 0.00 | 50 | 1013.1 |
| 20260503211232 | 64 | 184 | 7.0 | 17.4 | 0.00 | 0.00 | 0.00 | 50 | 1013.0 |
| 20260503210715 | 64 | 229 | 7.0 | 16.5 | 0.00 | 0.00 | 0.00 | 49 | 1013.1 |
| 20260503210239 | 65 | 221 | 10.4 | 16.5 | 0.00 | 0.00 | 0.00 | 48 | 1013.4 |
| 20260503205722 | 64 | 259 | 7.0 | 19.1 | 0.00 | 0.00 | 0.00 | 49 | 1013.4 |
| 20260503205226 | 64 | 269 | 7.8 | 19.1 | 0.00 | 0.00 | 0.00 | 49 | 1013.2 |
| 20260503204730 | 64 | 258 | 7.0 | 13.9 | 0.00 | 0.00 | 0.00 | 49 | 1013.9 |
| 20260503204214 | 64 | 281 | 7.0 | 16.5 | 0.00 | 0.00 | 0.00 | 48 | 1014.2 |
| 20260503203719 | 64 | 186 | 5.2 | 16.5 | 0.00 | 0.00 | 0.00 | 48 | 1014.3 |
| 20260503203222 | 64 | 290 | 10.4 | 16.5 | 0.00 | 0.00 | 0.00 | 47 | 1014.6 |
| 20260503202747 | 64 | 301 | 6.1 | 14.8 | 0.00 | 0.00 | 0.00 | 48 | 1014.6 |
| 20260503202246 | 64 | 252 | 7.0 | 16.5 | 0.00 | 0.00 | 0.00 | 48 | 1014.8 |
| 20260503201749 | 64 | 280 | 8.7 | 16.5 | 0.00 | 0.00 | 0.00 | 48 | 1014.9 |
| 20260503201252 | 65 | 277 | 8.7 | 16.5 | 0.00 | 0.00 | 0.00 | 46 | 1015.0 |
| 20260503200716 | 65 | 317 | 8.7 | 17.4 | 0.00 | 0.00 | 0.00 | 48 | 1014.9 |
| 20260503200220 | 65 | 223 | 10.4 | 21.7 | 0.00 | 0.00 | 0.00 | 48 | 1014.8 |
| 20260503195725 | 65 | 269 | 7.0 | 21.7 | 0.00 | 0.00 | 0.00 | 48 | 1014.7 |
| 20260503195229 | 65 | 267 | 7.0 | 16.5 | 0.00 | 0.00 | 0.00 | 51 | 1014.8 |
| 20260503194713 | 65 | 211 | 7.8 | 16.5 | 0.00 | 0.00 | 0.00 | 49 | 1014.7 |
| 20260503194217 | 65 | 264 | 8.7 | 15.6 | 0.00 | 0.00 | 0.00 | 49 | 1015.1 |
| 20260503193741 | 65 | 284 | 9.6 | 15.6 | 0.00 | 0.00 | 0.00 | 50 | 1015.0 |
| 20260503193224 | 64 | 266 | 7.0 | 16.5 | 0.00 | 0.00 | 0.00 | 50 | 1015.1 |
| 20260503192748 | 64 | 261 | 10.4 | 15.6 | 0.00 | 0.00 | 0.00 | 49 | 1015.4 |
| 20260503192232 | 64 | 244 | 4.3 | 15.6 | 0.00 | 0.00 | 0.00 | 52 | 1015.3 |
| 20260503191716 | 64 | 162 | 7.8 | 15.6 | 0.00 | 0.00 | 0.00 | 51 | 1015.6 |
| 20260503191240 | 63 | 264 | 6.1 | 18.2 | 0.00 | 0.00 | 0.00 | 51 | 1015.6 |
| 20260503190742 | 63 | 290 | 7.8 | 20.9 | 0.00 | 0.00 | 0.00 | 50 | 1015.4 |
| 20260503190225 | 63 | 300 | 10.4 | 20.9 | 0.00 | 0.00 | 0.00 | 49 | 1015.7 |
| 20260503185729 | 64 | 265 | 9.6 | 19.1 | 0.00 | 0.00 | 0.00 | 49 | 1015.8 |
| 20260503185213 | 64 | 297 | 7.0 | 15.6 | 0.00 | 0.00 | 0.00 | 51 | 1015.8 |
| 20260503184717 | 64 | 333 | 8.7 | 15.6 | 0.00 | 0.00 | 0.00 | 51 | 1015.9 |
| 20260503184221 | 64 | 264 | 6.1 | 15.6 | 0.00 | 0.00 | 0.00 | 47 | 1015.9 |
| 20260503183747 | 64 | 234 | 7.0 | 14.8 | 0.00 | 0.00 | 0.00 | 50 | 1016.3 |
| 20260503183230 | 64 | 267 | 8.7 | 16.5 | 0.00 | 0.00 | 0.00 | 49 | 1016.3 |
| 20260503182734 | 63 | 254 | 10.4 | 16.5 | 0.00 | 0.00 | 0.00 | 49 | 1016.3 |
| 20260503182240 | 63 | 253 | 7.0 | 23.5 | 0.00 | 0.00 | 0.00 | 50 | 1016.6 |
| 20260503181725 | 63 | 271 | 10.4 | 23.5 | 0.00 | 0.00 | 0.00 | 49 | 1016.7 |
| 20260503181231 | 64 | 260 | 9.6 | 17.4 | 0.00 | 0.00 | 0.00 | 49 | 1016.8 |
| 20260503180717 | 63 | 344 | 7.8 | 17.4 | 0.00 | 0.00 | 0.00 | 51 | 1016.8 |
| 20260503180244 | 63 | 263 | 5.2 | 10.4 | 0.00 | 0.00 | 0.00 | 50 | 1017.0 |
| 20260503175729 | 63 | 222 | 6.1 | 13.9 | 0.00 | 0.00 | 0.00 | 51 | 1017.2 |
| 20260503175231 | 63 | 309 | 9.6 | 20.9 | 0.00 | 0.00 | 0.00 | 50 | 1017.4 |
| 20260503174735 | 63 | 268 | 10.4 | 20.9 | 0.00 | 0.00 | 0.00 | 52 | 1017.6 |
| 20260503174239 | 63 | 259 | 7.8 | 18.2 | 0.00 | 0.00 | 0.00 | 50 | 1017.6 |
| 20260503173741 | 63 | 208 | 9.6 | 18.2 | 0.00 | 0.00 | 0.00 | 51 | 1017.7 |
| 20260503173224 | 63 | 266 | 7.8 | 14.8 | 0.00 | 0.00 | 0.00 | 51 | 1017.8 |
| 20260503172729 | 63 | 258 | 7.0 | 19.1 | 0.00 | 0.00 | 0.00 | 50 | 1017.8 |
| 20260503172252 | 63 | 263 | 9.6 | 19.1 | 0.00 | 0.00 | 0.00 | 49 | 1017.9 |
| 20260503171715 | 62 | 252 | 7.0 | 20.0 | 0.00 | 0.00 | 0.00 | 50 | 1017.9 |
| 20260503171239 | 62 | 246 | 7.8 | 20.0 | 0.00 | 0.00 | 0.00 | 50 | 1017.9 |
| 20260503170722 | 62 | 280 | 7.0 | 14.8 | 0.00 | 0.00 | 0.00 | 52 | 1018.0 |
| 20260503170246 | 62 | 238 | 6.1 | 18.2 | 0.00 | 0.00 | 0.00 | 51 | 1018.0 |
| 20260503150723 | 58 | 276 | 5.2 | 14.8 | 0.00 | 0.00 | 0.00 | 53 | 1019.2 |
| 20260503150249 | 58 | 281 | 7.0 | 13.0 | 0.00 | 0.00 | 0.00 | 53 | 1019.2 |
| 20260503140216 | 54 | 309 | 7.8 | 12.2 | 0.00 | 0.00 | 0.00 | 57 | 1019.4 |
| 20260503131231 | 48 | 310 | 2.6 | 7.8 | 0.00 | 0.00 | 0.00 | 68 | 1019.4 |
| 20260503130735 | 48 | 287 | 3.5 | 7.0 | 0.00 | 0.00 | 0.00 | 70 | 1019.4 |
| 20260503130218 | 47 | 270 | 2.6 | 7.0 | 0.00 | 0.00 | 0.00 | 70 | 1019.4 |
| 20260503110716 | 36 | 223 | 1.7 | 3.5 | 0.00 | 0.00 | 0.00 | 90 | 1019.0 |
| 20260503110217 | 36 | 229 | 0.9 | 2.6 | 0.00 | 0.00 | 0.00 | 90 | 1019.0 |
| 20260503100236 | 35 | 210 | 0.9 | 2.6 | 0.00 | 0.00 | 0.00 | 90 | 1018.7 |
| 20260503090216 | 34 | 142 | 0.9 | 1.7 | 0.00 | 0.00 | 0.00 | 90 | 1018.6 |
| 20260503081252 | 34 | 70 | 0.0 | 0.0 | 0.00 | 0.00 | 0.00 | 89 | 1018.6 |
| 20260503080716 | 34 | 70 | 0.0 | 0.9 | 0.00 | 0.00 | 0.00 | 89 | 1018.6 |
| 20260503080219 | 34 | 70 | 0.0 | 0.9 | 0.00 | 0.00 | 0.00 | 89 | 1018.6 |
| 20260503072719 | 34 | 70 | 0.0 | 0.0 | 0.00 | 0.00 | 0.00 | 88 | 1018.7 |
| 20260503072246 | 35 | 70 | 0.0 | 0.0 | 0.00 | 0.00 | 0.00 | 88 | 1018.6 |
| 20260503071752 | 35 | 70 | 0.0 | 0.0 | 0.00 | 0.00 | 0.00 | 88 | 1018.7 |
| 20260503071217 | 35 | 70 | 0.0 | 0.0 | 0.00 | 0.00 | 0.00 | 88 | 1018.7 |
| 20260503070723 | 35 | 70 | 0.0 | 0.0 | 0.00 | 0.00 | 0.00 | 88 | 1018.7 |
| 20260503070251 | 35 | 70 | 0.0 | 0.0 | 0.00 | 0.00 | 0.00 | 87 | 1018.7 |
| 20260503060247 | 36 | 70 | 0.0 | 0.9 | 0.00 | 0.00 | 0.00 | 86 | 1019.0 |
| 20260503054719 | 36 | 70 | 0.0 | 1.7 | 0.00 | 0.00 | 0.00 | 86 | 1019.1 |
| 20260503054224 | 36 | 70 | 0.9 | 1.7 | 0.00 | 0.00 | 0.00 | 86 | 1019.0 |
| 20260503053749 | 36 | 70 | 0.0 | 0.0 | 0.00 | 0.00 | 0.00 | 85 | 1019.2 |
| 20260503053232 | 36 | 70 | 0.0 | 0.0 | 0.00 | 0.00 | 0.00 | 85 | 1019.2 |
| 20260503052717 | 37 | 70 | 0.0 | 0.0 | 0.00 | 0.00 | 0.00 | 85 | 1019.2 |
| 20260503052242 | 37 | 70 | 0.0 | 0.0 | 0.00 | 0.00 | 0.00 | 85 | 1019.2 |
| 20260503051725 | 37 | 70 | 0.0 | 0.0 | 0.00 | 0.00 | 0.00 | 85 | 1019.2 |
| 20260503051249 | 37 | 70 | 0.0 | 1.7 | 0.00 | 0.00 | 0.00 | 85 | 1019.2 |
| 20260503050732 | 37 | 70 | 0.0 | 1.7 | 0.00 | 0.00 | 0.00 | 85 | 1019.1 |
| 20260503050218 | 37 | 70 | 0.9 | 1.7 | 0.00 | 0.00 | 0.00 | 84 | 1019.2 |
| 20260503045724 | 37 | 69 | 0.0 | 0.0 | 0.00 | 0.00 | 0.00 | 84 | 1019.1 |
| 20260503045229 | 37 | 69 | 0.0 | 0.0 | 0.00 | 0.00 | 0.00 | 83 | 1019.3 |
| 20260503044736 | 38 | 69 | 0.0 | 0.0 | 0.00 | 0.00 | 0.00 | 83 | 1019.3 |
| 20260503044241 | 38 | 69 | 0.0 | 0.0 | 0.00 | 0.00 | 0.00 | 83 | 1019.3 |
| 20260503043746 | 38 | 69 | 0.0 | 0.0 | 0.00 | 0.00 | 0.00 | 82 | 1019.2 |
| 20260503043230 | 38 | 69 | 0.0 | 0.0 | 0.00 | 0.00 | 0.00 | 82 | 1019.3 |
| 20260503042734 | 38 | 69 | 0.0 | 0.0 | 0.00 | 0.00 | 0.00 | 82 | 1019.3 |
| 20260503042217 | 38 | 69 | 0.0 | 0.0 | 0.00 | 0.00 | 0.00 | 82 | 1019.2 |
| 20260503041721 | 38 | 69 | 0.0 | 0.0 | 0.00 | 0.00 | 0.00 | 81 | 1019.2 |
| 20260503041226 | 39 | 69 | 0.0 | 0.0 | 0.00 | 0.00 | 0.00 | 81 | 1019.1 |
| 20260503040731 | 39 | 68 | 0.0 | 0.0 | 0.00 | 0.00 | 0.00 | 80 | 1019.2 |
| 20260503040217 | 39 | 69 | 0.0 | 0.0 | 0.00 | 0.00 | 0.00 | 80 | 1019.2 |
| 20260503035744 | 39 | 69 | 0.0 | 0.0 | 0.00 | 0.00 | 0.00 | 80 | 1019.1 |
| 20260503035229 | 39 | 69 | 0.0 | 0.0 | 0.00 | 0.00 | 0.00 | 80 | 1019.1 |
| 20260503034716 | 39 | 69 | 0.0 | 0.0 | 0.00 | 0.00 | 0.00 | 80 | 1019.1 |
| 20260503034242 | 40 | 69 | 0.0 | 0.0 | 0.00 | 0.00 | 0.00 | 80 | 1019.0 |
| 20260503033727 | 40 | 69 | 0.0 | 0.0 | 0.00 | 0.00 | 0.00 | 79 | 1019.1 |
| 20260503033213 | 40 | 69 | 0.0 | 0.0 | 0.00 | 0.00 | 0.00 | 79 | 1019.0 |
| 20260503032739 | 41 | 69 | 0.0 | 0.0 | 0.00 | 0.00 | 0.00 | 77 | 1019.0 |
| 20260503032225 | 41 | 69 | 0.0 | 0.0 | 0.00 | 0.00 | 0.00 | 77 | 1019.0 |
| 20260503031731 | 41 | 68 | 0.0 | 0.0 | 0.00 | 0.00 | 0.00 | 76 | 1019.1 |
| 20260503031236 | 41 | 69 | 0.0 | 0.0 | 0.00 | 0.00 | 0.00 | 75 | 1019.0 |
| 20260503030721 | 41 | 69 | 0.0 | 0.0 | 0.00 | 0.00 | 0.00 | 74 | 1019.1 |
| 20260503030227 | 42 | 69 | 0.0 | 0.0 | 0.00 | 0.00 | 0.00 | 74 | 1019.2 |
| 20260503025753 | 42 | 69 | 0.0 | 0.0 | 0.00 | 0.00 | 0.00 | 74 | 1019.2 |
| 20260503025218 | 42 | 69 | 0.0 | 0.0 | 0.00 | 0.00 | 0.00 | 74 | 1019.2 |
| 20260503024744 | 42 | 69 | 0.0 | 0.0 | 0.00 | 0.00 | 0.00 | 74 | 1019.1 |
| 20260503024249 | 43 | 69 | 0.0 | 0.0 | 0.00 | 0.00 | 0.00 | 74 | 1019.1 |
| 20260503023714 | 43 | 69 | 0.0 | 0.0 | 0.00 | 0.00 | 0.00 | 72 | 1019.1 |
| 20260503023219 | 43 | 68 | 0.0 | 0.0 | 0.00 | 0.00 | 0.00 | 71 | 1019.0 |
| 20260503022723 | 44 | 68 | 0.0 | 0.0 | 0.00 | 0.00 | 0.00 | 71 | 1019.0 |
| 20260503022226 | 44 | 68 | 0.0 | 0.0 | 0.00 | 0.00 | 0.00 | 70 | 1019.0 |
| 20260503021731 | 44 | 69 | 0.0 | 0.0 | 0.00 | 0.00 | 0.00 | 70 | 1018.9 |
| 20260503021217 | 45 | 69 | 0.0 | 0.0 | 0.00 | 0.00 | 0.00 | 68 | 1018.9 |
| 20260503020723 | 45 | 68 | 0.0 | 0.0 | 0.00 | 0.00 | 0.00 | 67 | 1018.8 |
| 20260503020230 | 46 | 68 | 0.0 | 0.0 | 0.00 | 0.00 | 0.00 | 66 | 1018.8 |
| 20260503015736 | 46 | 68 | 0.0 | 0.0 | 0.00 | 0.00 | 0.00 | 65 | 1018.7 |
| 20260503015220 | 47 | 68 | 0.0 | 0.0 | 0.00 | 0.00 | 0.00 | 65 | 1018.7 |
| 20260503014727 | 47 | 68 | 0.0 | 0.0 | 0.00 | 0.00 | 0.00 | 64 | 1018.6 |
| 20260503014234 | 47 | 68 | 0.0 | 0.0 | 0.00 | 0.00 | 0.00 | 64 | 1018.5 |
| 20260503013720 | 48 | 68 | 0.0 | 0.0 | 0.00 | 0.00 | 0.00 | 62 | 1018.5 |
| 20260503013247 | 48 | 68 | 0.0 | 0.0 | 0.00 | 0.00 | 0.00 | 61 | 1018.4 |